This demonstration page uses our WeatherBlox Daily Observations layout. Learn more.

Left ArrowRight Arrow

39.51506, -84.39828

Hourly Observations for October 11, 2015

Temp ( °F °C ) Dew Point ( °F °C ) Humidity (%) Winds ( mph kmh ) Pressure ( in mb ) Visibility ( mi km ) Precip ( " mm )
12:15 am 00:15 Clear 46 7.5 42 5.5 87 87 N N/A 30.09 1019 10 16 N/A
12:35 am 00:35 Clear 44 6.8 41 4.9 88 88 N N/A 30.06 1018 10 16 N/A
12:55 am 00:55 Clear 43 6.1 40 4.2 88 88 N N/A 30.06 1018 10 16 N/A
1:15 am 01:15 Clear with Mist and Fog 43 6 40 4.2 88 88 N N/A 30.06 1018 5 8 N/A
1:35 am 01:35 Clear 43 6.3 40 4.6 89 89 N N/A 30.06 1018 7 11 N/A
1:55 am 01:55 Clear 42 5.8 39 4.1 89 89 N N/A 30.06 1018 7 11 N/A
2:15 am 02:15 Mostly Cloudy with Mist and Fog 43 5.9 40 4.2 89 89 N N/A 30.06 1018 1 1 N/A
2:35 am 02:35 Mostly Cloudy with Fog 41 5.2 38 3.4 88 88 N N/A 30.06 1018 1 1 N/A
2:55 am 02:55 Clear with Mist and Fog 42 5.7 39 4.1 90 90 N N/A 30.06 1018 2 3 N/A
3:15 am 03:15 Clear with Mist and Fog 42 5.5 39 3.8 89 89 N N/A 30.06 1018 3 5 N/A
3:35 am 03:35 Mostly Cloudy with Fog 42 5.7 39 4.1 90 90 N N/A 30.03 1017 1 1 N/A
3:55 am 03:55 Mostly Cloudy with Fog 41 5.1 38 3.6 90 90 N N/A 30.03 1017 0 0 N/A
4:15 am 04:15 Mostly Cloudy with Fog 42 5.5 39 4 90 90 N N/A 30.03 1017 1 1 N/A
4:35 am 04:35 Cloudy with Fog 42 5.3 39 3.8 90 90 N N/A 30.03 1017 0 0 N/A
4:55 am 04:55 Mostly Cloudy with Fog 42 5.5 39 4 90 90 N N/A 30.03 1017 1 1 N/A
5:15 am 05:15 Mostly Cloudy with Fog 41 5.2 39 3.7 90 90 N N/A 30.03 1017 0 0 N/A
5:35 am 05:35 Cloudy with Mist and Fog 42 5.5 39 4 90 90 N N/A 30.03 1017 1 1 N/A
5:55 am 05:55 Cloudy with Mist and Fog 40 4.7 38 3.2 90 90 N N/A 30.03 1017 2 3 N/A
6:15 am 06:15 Cloudy with Fog 40 4.7 38 3.2 90 90 N N/A 30.03 1017 0 0 N/A
6:35 am 06:35 Mostly Cloudy with Fog 40 4.7 38 3.2 90 90 N N/A 30.03 1017 1 1 N/A
6:55 am 06:55 Mostly Cloudy with Fog 40 4.7 38 3.2 90 90 N N/A 30.03 1017 1 1 N/A
7:15 am 07:15 Mostly Cloudy with Fog 39 4.1 37 2.8 91 91 N N/A 30.03 1017 0 0 N/A
7:35 am 07:35 Mostly Cloudy with Fog 40 4.7 38 3.4 91 91 N N/A 30.03 1017 1 1 N/A
7:55 am 07:55 Mostly Cloudy with Fog 40 4.6 38 3.2 91 91 N N/A 30.03 1017 0 0 N/A
8:15 am 08:15 Mostly Cloudy with Fog 40 4.3 37 2.9 91 91 N N/A 30.03 1017 5 8 N/A
8:35 am 08:35 Mostly Cloudy with Fog 40 4.7 38 3.5 92 92 N N/A 30.03 1017 1 1 N/A
8:55 am 08:55 Sunny with Mist and Fog 44 6.6 42 5.3 92 92 N N/A 30.03 1017 3 4 N/A
9:15 am 09:15 Sunny 47 8.2 44 6.8 91 91 N N/A 30.06 1018 7 11 N/A
9:35 am 09:35 Sunny 49 9.6 47 8.2 91 91 N N/A 30.06 1018 7 11 N/A
9:55 am 09:55 Sunny 50 9.8 47 8.2 90 90 N N/A 30.03 1017 10 16 N/A
10:15 am 10:15 Sunny 54 12.4 50 10.2 87 87 N N/A 30.03 1017 10 16 N/A
10:35 am 10:35 Sunny 55 12.9 49 9.3 79 79 SW 6 9 30.03 1017 10 16 N/A
10:55 am 10:55 Sunny 57 14 47 8.3 69 69 SW 6 9 30.03 1017 10 16 N/A
11:15 am 11:15 Sunny 60 15.3 47 8.6 65 65 SW 6 9 30.03 1017 10 16 N/A
11:35 am 11:35 Sunny 62 16.7 47 8.6 59 59 SSW 6 9 30.00 1016 10 16 N/A
11:55 am 11:55 Sunny 65 18.2 47 8.3 53 53 SSW 7 11 30.00 1016 10 16 N/A
12:15 pm 12:15 Sunny 69 20.8 48 9.1 47 47 SW 6 9 30.00 1016 10 16 N/A
12:35 pm 12:35 Sunny 69 20.8 45 7.3 42 42 WSW 10 17 29.97 1015 10 16 N/A
12:55 pm 12:55 Sunny 69 20.8 45 7.1 41 41 S 8 13 29.97 1015 10 16 N/A
1:15 pm 13:15 Sunny 70 20.9 43 6 38 38 SSW 10 17 29.97 1015 10 16 N/A
1:35 pm 13:35 Sunny 73 22.5 45 7 37 37 SW 8 13 29.94 1014 10 16 N/A
1:55 pm 13:55 Sunny 72 22.3 44 6.9 37 37 S 10 17 29.94 1014 10 16 N/A
2:15 pm 14:15 Sunny 74 23.2 46 7.5 37 37 SSW 10 17 29.94 1014 10 16 N/A
2:55 pm 14:55 Sunny 74 23.6 42 5.3 31 31 SSW 12 19 29.91 1013 10 16 N/A
3:15 pm 15:15 Sunny 74 23.6 42 5.5 31 31 SW 9 15 29.88 1012 10 16 N/A
3:35 pm 15:35 Sunny 74 23.6 41 5.1 30 30 SW 10 17 29.88 1012 10 16 N/A
3:55 pm 15:55 Sunny 74 23.6 40 4.5 29 29 SSW 9 15 29.88 1012 10 16 N/A
4:15 pm 16:15 Sunny 74 23.6 40 4.3 29 29 SW 9 15 29.88 1012 10 16 N/A
4:35 pm 16:35 Sunny 74 23.6 40 4.4 29 29 S 14 22 29.85 1011 10 16 N/A
4:55 pm 16:55 Sunny 74 23.6 42 5.4 31 31 SW 8 13 29.85 1011 10 16 N/A
5:15 pm 17:15 Sunny 74 23.6 40 4.5 29 29 SSW 12 19 29.85 1011 10 16 N/A
5:35 pm 17:35 Sunny 74 23.6 40 4.2 28 28 SSW 13 20 29.85 1011 10 16 N/A
5:55 pm 17:55 Sunny 74 23.6 40 4.3 29 29 SSW 9 15 29.85 1011 10 16 N/A
6:15 pm 18:15 Sunny 74 23.6 42 5.3 31 31 SSW 12 19 29.85 1011 10 16 N/A
6:35 pm 18:35 Sunny 71 21.7 40 4.7 33 33 SSW 8 13 29.85 1011 10 16 N/A
6:55 pm 18:55 Sunny 69 20.8 42 5.7 37 37 SSW 6 9 29.83 1010 10 16 N/A
7:15 pm 19:15 Clear 64 18 44 6.5 47 47 WSW 5 7 29.85 1011 10 16 N/A
7:35 pm 19:35 Clear 62 16.6 46 7.5 55 55 N N/A 29.85 1011 10 16 N/A
7:55 pm 19:55 Clear 60 15.3 49 9.6 69 69 N N/A 29.85 1011 10 16 N/A
8:15 pm 20:15 Clear 57 13.9 48 9 73 73 N N/A 29.88 1012 10 16 N/A
8:35 pm 20:35 Clear 57 13.8 49 9.6 76 76 N N/A 29.88 1012 10 16 N/A
8:55 pm 20:55 Clear 56 13.1 50 9.8 81 81 N N/A 29.88 1012 10 16 N/A
9:15 pm 21:15 Clear 55 12.5 49 9.2 80 80 N N/A 29.88 1012 10 16 N/A
9:35 pm 21:35 Clear 55 12.5 49 9.7 83 83 N N/A 29.88 1012 10 16 N/A
9:55 pm 21:55 Clear 55 12.5 49 9.6 83 83 N N/A 29.88 1012 10 16 N/A
10:15 pm 22:15 Clear 55 12.5 49 9.7 83 83 N N/A 29.88 1012 10 16 N/A
10:35 pm 22:35 Clear 55 12.5 49 9.6 83 83 N N/A 29.88 1012 10 16 N/A
10:55 pm 22:55 Clear 55 12.5 50 10 85 85 N N/A 29.88 1012 10 16 N/A
11:15 pm 23:15 Clear 52 11 48 8.7 86 86 N N/A 29.88 1012 10 16 N/A
11:35 pm 23:35 Clear 52 11 48 8.8 86 86 N N/A 29.88 1012 10 16 N/A
11:55 pm 23:55 Clear 51 10.3 47 8.2 87 87 N N/A 29.88 1012 10 16 N/A

Powered by AerisWeather